Leesburg, VA

9:09 AM EDT on July 23, 2019 (GMT -0400)
Leesburg Executive

Weather History for KJYO - April, 2019

Change the Weather History Date:

Monday, April 15, 2019

  Actual Average (WUND) Record (WUND)
Temperature  
Mean Temperature 58 °F -  
Max Temperature 71 °F - - (-1)
Min Temperature 46 °F - - (-1)
Degree Days  
Heating Degree Days 6    
Growing Degree Days 8 (Base 50)    
Moisture  
Dew Point 43 °F    
Average Humidity 67    
Maximum Humidity 100    
Minimum Humidity 47    
Precipitation  
Precipitation 0.00 in - - ()
Sea Level Pressure  
Sea Level Pressure 29.70 in    
Wind  
Wind Speed 15 mph (WNW)    
Max Wind Speed 34 mph    
Max Gust Speed 50 mph    
Visibility 10 miles    
Events Thunderstorm    
Averages and records for this station are not official NWS values.
T = Trace of Precipitation, MM = Missing Value Source: NWS Daily Summary

Daily Weather History Graph

Daily Weather History Graph

Search for Another Location

Airport or City:

Astronomy

Apr. 15, 2019 Rise Set
Actual Time 6:33 AM EDT 7:47 PM EDT
Civil Twilight 6:06 AM EDT 8:15 PM EDT
Nautical Twilight 5:33 AM EDT 8:48 PM EDT
Astronomical Twilight 4:58 AM EDT 9:22 PM EDT
Moon 3:29 PM EDT (4/15) 4:34 AM EDT (4/15)
Length of Visible Light 14h 08m
Length of Day
13h 13m
Waxing Gibbous, 81% of the Moon is Illuminated
Apr 15
Waxing Gibbous
Apr 19
Full
Apr 26
Last Quarter
May 4
New
May 11
First Quarter

Hourly Weather History & Observations

Time (EDT) Temp. Windchill Dew Point Humidity Pressure Visibility Wind Dir Wind Speed Gust Speed Precip Events Conditions
12:15 AM 71.6 °F - 66.2 °F 83% 29.43 in 10.0 mi SSW 13.8 mph 26.5 mph N/A   Overcast
12:35 AM 71.6 °F - 66.2 °F 83% 29.42 in 10.0 mi South 13.8 mph 19.6 mph N/A   Overcast
12:55 AM 71.6 °F - 68.0 °F 88% 29.42 in 10.0 mi SSW 10.4 mph 25.3 mph N/A   Overcast
1:15 AM 71.6 °F - 66.2 °F 83% 29.41 in 10.0 mi SSW 16.1 mph 23.0 mph N/A   Mostly Cloudy
1:35 AM 71.6 °F - 66.2 °F 83% 29.39 in 10.0 mi SW 10.4 mph 26.5 mph N/A   Mostly Cloudy
1:55 AM 68.0 °F - 60.8 °F 78% 29.46 in 10.0 mi West 25.3 mph 35.7 mph N/A   Overcast
2:15 AM 60.8 °F - 60.8 °F 100% 29.44 in 5.0 mi WNW 9.2 mph - N/A Thunderstorm Thunderstorm
2:35 AM 59.0 °F - 59.0 °F 100% 29.43 in 10.0 mi WNW 6.9 mph - N/A   Mostly Cloudy
2:55 AM 59.0 °F - 59.0 °F 100% 29.44 in 10.0 mi WNW 6.9 mph - N/A   Overcast
3:15 AM 59.0 °F - 59.0 °F 100% 29.44 in 10.0 mi NNW 3.5 mph - N/A   Overcast
3:35 AM 59.0 °F - 59.0 °F 100% 29.43 in 10.0 mi Calm Calm - N/A   Overcast
3:55 AM 59.0 °F - 59.0 °F 100% 29.43 in 10.0 mi Calm Calm - N/A   Overcast
4:15 AM 57.2 °F - 57.2 °F 100% 29.44 in 5.0 mi WSW 3.5 mph - N/A   Overcast
4:35 AM 57.2 °F - 57.2 °F 100% 29.39 in 10.0 mi Calm Calm - N/A   Scattered Clouds
4:55 AM 57.2 °F - 57.2 °F 100% 29.41 in 10.0 mi Calm Calm - N/A   Scattered Clouds
5:15 AM 55.4 °F - 55.4 °F 100% 29.39 in 10.0 mi NW 3.5 mph - N/A   Clear
5:35 AM 55.4 °F - 55.4 °F 100% 29.41 in 10.0 mi Calm Calm - N/A   Clear
5:55 AM 55.4 °F - 55.4 °F 100% 29.42 in 10.0 mi Calm Calm - N/A   Clear
6:15 AM 55.4 °F - 55.4 °F 100% 29.43 in 10.0 mi West 8.1 mph - N/A   Clear
6:35 AM 55.4 °F - 53.6 °F 94% 29.44 in 10.0 mi West 15.0 mph 20.7 mph N/A   Clear
6:55 AM 59.0 °F - 51.8 °F 77% 29.46 in 10.0 mi WNW 12.7 mph 17.3 mph N/A   Scattered Clouds
7:15 AM 59.0 °F - 51.8 °F 77% 29.48 in 10.0 mi WNW 25.3 mph 32.2 mph N/A   Overcast
7:35 AM 57.2 °F - 46.4 °F 67% 29.50 in 10.0 mi WNW 25.3 mph 34.5 mph N/A   Overcast
7:55 AM 55.4 °F - 46.4 °F 72% 29.52 in 10.0 mi NW 20.7 mph 34.5 mph N/A   Overcast
8:15 AM 53.6 °F - 42.8 °F 67% 29.54 in 10.0 mi NW 25.3 mph 34.5 mph N/A   Overcast
8:35 AM 51.8 °F - 41.0 °F 67% 29.56 in 10.0 mi NW 33.4 mph 40.3 mph N/A   Scattered Clouds
8:55 AM 53.6 °F - 39.2 °F 58% 29.57 in 10.0 mi WNW 34.5 mph 49.5 mph N/A   Clear
9:15 AM 53.6 °F - 37.4 °F 54% 29.60 in 10.0 mi WNW 25.3 mph 41.4 mph N/A   Clear
9:35 AM 53.6 °F - 37.4 °F 54% 29.61 in 10.0 mi WNW 27.6 mph 38.0 mph N/A   Clear
9:55 AM 53.6 °F - 37.4 °F 54% 29.63 in 10.0 mi West 25.3 mph 39.1 mph N/A   Scattered Clouds
10:15 AM 51.8 °F - 37.4 °F 58% 29.65 in 10.0 mi NW 20.7 mph 34.5 mph N/A   Mostly Cloudy
10:35 AM 53.6 °F - 37.4 °F 54% 29.65 in 10.0 mi NW 26.5 mph 35.7 mph N/A   Mostly Cloudy
10:55 AM 51.8 °F - 35.6 °F 54% 29.66 in 10.0 mi WNW 27.6 mph 43.7 mph N/A   Scattered Clouds
11:15 AM 51.8 °F - 33.8 °F 50% 29.67 in 10.0 mi WNW 32.2 mph 47.2 mph N/A   Scattered Clouds
11:35 AM 51.8 °F - 33.8 °F 50% 29.69 in 10.0 mi WNW 33.4 mph 48.3 mph N/A   Scattered Clouds
11:55 AM 51.8 °F - 35.6 °F 54% 29.70 in 10.0 mi WNW 26.5 mph 40.3 mph N/A   Scattered Clouds
12:15 PM 51.8 °F - 35.6 °F 54% 29.72 in 10.0 mi WNW 26.5 mph 47.2 mph N/A   Mostly Cloudy
12:35 PM 51.8 °F - 33.8 °F 50% 29.74 in 10.0 mi WNW 25.3 mph 48.3 mph N/A   Overcast
12:55 PM 50.0 °F - 33.8 °F 54% 29.75 in 10.0 mi WNW 25.3 mph 35.7 mph N/A   Overcast
1:15 PM 50.0 °F - 33.8 °F 54% 29.76 in 10.0 mi WNW 12.7 mph 33.4 mph N/A   Overcast
1:35 PM 51.8 °F - 35.6 °F 54% 29.76 in 10.0 mi NW 26.5 mph 42.6 mph N/A   Overcast
1:55 PM 51.8 °F - 35.6 °F 54% 29.77 in 10.0 mi NW 20.7 mph 39.1 mph N/A   Mostly Cloudy
2:15 PM 51.8 °F - 35.6 °F 54% 29.78 in 10.0 mi WNW 32.2 mph 41.4 mph N/A   Overcast
2:35 PM 53.6 °F - 35.6 °F 51% 29.79 in 10.0 mi NW 25.3 mph 40.3 mph N/A   Mostly Cloudy
2:55 PM 53.6 °F - 35.6 °F 51% 29.80 in 10.0 mi WNW 24.2 mph 40.3 mph N/A   Scattered Clouds
3:15 PM 53.6 °F - 33.8 °F 47% 29.81 in 10.0 mi WNW 28.8 mph 42.6 mph N/A   Mostly Cloudy
3:35 PM 51.8 °F - 33.8 °F 50% 29.82 in 10.0 mi WNW 28.8 mph 43.7 mph N/A   Overcast
3:55 PM 51.8 °F - 33.8 °F 50% 29.83 in 10.0 mi WNW 24.2 mph 38.0 mph N/A   Overcast
4:15 PM 51.8 °F - 33.8 °F 50% 29.83 in 10.0 mi NW 21.9 mph 39.1 mph N/A   Overcast
4:35 PM 51.8 °F - 33.8 °F 50% 29.84 in 10.0 mi WNW 17.3 mph 28.8 mph N/A   Overcast
4:55 PM 51.8 °F - 33.8 °F 50% 29.85 in 10.0 mi NW 28.8 mph 40.3 mph N/A   Overcast
5:15 PM 50.0 °F - 35.6 °F 58% 29.87 in 10.0 mi NW 18.4 mph 33.4 mph N/A   Overcast
5:35 PM 51.8 °F - 33.8 °F 50% 29.88 in 10.0 mi NW 29.9 mph 41.4 mph N/A   Overcast
5:55 PM 51.8 °F - 33.8 °F 50% 29.90 in 10.0 mi NW 26.5 mph 38.0 mph N/A   Overcast
6:15 PM 51.8 °F - 35.6 °F 54% 29.92 in 10.0 mi NW 15.0 mph 29.9 mph N/A   Overcast
6:35 PM 51.8 °F - 35.6 °F 54% 29.93 in 10.0 mi NW 16.1 mph 29.9 mph N/A   Overcast
6:55 PM 51.8 °F - 33.8 °F 50% 29.93 in 10.0 mi NW 16.1 mph 31.1 mph N/A   Mostly Cloudy
7:15 PM 50.0 °F - 33.8 °F 54% 29.94 in 10.0 mi NW 13.8 mph 27.6 mph N/A   Mostly Cloudy
7:35 PM 50.0 °F - 33.8 °F 54% 29.96 in 10.0 mi NW 21.9 mph 29.9 mph N/A   Overcast
7:55 PM 50.0 °F - 33.8 °F 54% 29.97 in 10.0 mi NW 16.1 mph 31.1 mph N/A   Scattered Clouds
8:15 PM 48.2 °F - 33.8 °F 58% 29.98 in 10.0 mi NW 13.8 mph 26.5 mph N/A   Scattered Clouds
8:35 PM 48.2 °F - 33.8 °F 58% 29.99 in 10.0 mi NW 13.8 mph 21.9 mph N/A   Clear
8:55 PM 48.2 °F - 32.0 °F 54% 30.00 in 10.0 mi NW 12.7 mph 16.1 mph N/A   Clear
9:15 PM 46.4 °F 41.9 °F 32.0 °F 57% 30.01 in 10.0 mi NW 9.2 mph - N/A   Clear
9:35 PM 46.4 °F 42.9 °F 33.8 °F 62% 30.02 in 10.0 mi NW 6.9 mph - N/A   Clear
9:55 PM 46.4 °F 45.2 °F 33.8 °F 62% 30.03 in 10.0 mi WNW 3.5 mph - N/A   Clear
10:15 PM 46.4 °F - 33.8 °F 62% 30.03 in 10.0 mi Calm Calm - N/A   Clear
10:35 PM 46.4 °F - 33.8 °F 62% 30.04 in 10.0 mi Calm Calm - N/A   Clear
10:55 PM 46.4 °F 45.2 °F 33.8 °F 62% 30.04 in 10.0 mi WNW 3.5 mph - N/A   Clear
11:15 PM 46.4 °F 42.4 °F 33.8 °F 62% 30.05 in 10.0 mi WNW 8.1 mph - N/A   Clear
11:35 PM 46.4 °F 41.9 °F 33.8 °F 62% 30.06 in 10.0 mi WNW 9.2 mph - N/A   Clear
11:55 PM 46.4 °F 45.2 °F 33.8 °F 62% 30.05 in 10.0 mi NW 3.5 mph - N/A   Clear